Location: Shades State Park
(39.9310°N, 87.0690°W)
Time: 15:20:37
(UTC-04:00)

Daily predictions for brighter satellites

Satellite Brightness Start Highest point End
(mag) Time Altitude Azimuth Time Altitude Azimuth Time Altitude Azimuth
OAO 3 Rocket 3.9 21:43:48 10° SW 21:48:21 37° SSE 21:52:52 10° E
Cosmos 1707 2.7 21:51:06 10° S 21:54:57 78° E 21:58:48 10° N
Resurs 01 Rocket 1.7 21:50:44 10° S 21:55:09 82° WSW 21:59:36 10° NNW
Cosmos 1315 Rocket 3.9 21:53:05 10° SSE 21:56:32 28° E 22:00:02 10° NNE
Cosmos 1953 2.7 21:54:37 10° NNW 21:58:36 68° W 22:02:33 10° S
Cosmos 1452 Rocket 3.7 21:53:24 10° NNW 21:58:39 60° ENE 22:03:51 10° SSE
Cosmos 1758 Rocket 4.4 21:55:49 10° SSE 21:59:48 33° E 22:03:47 10° NNE
Spot 2 Rocket 3.5 21:55:57 10° SSE 22:00:58 82° ENE 22:06:03 10° NNW
Cosmos 1420 Rocket 4.3 21:55:58 10° N 22:01:04 55° ENE 22:06:07 10° SE
Cosmos 1378 4.1 21:58:48 10° SSW 22:02:24 50° W 22:06:02 10° N
Cosmos 2056 Rocket 4.5 21:58:03 10° NNW 22:02:59 46° WSW 22:07:56 10° S
Cosmos 158 Rocket 4.0 21:57:40 10° SSW 22:03:00 85° ESE 22:08:15 10° NNE
H-2A R/B 2.6 22:11:51 10° SE 22:16:48 47° ENE 22:21:57 10° N
Cosmos 1437 4.2 22:14:20 10° NNE 22:16:52 22° ENE 22:18:41 14° ESE
Cosmos 1943 3.9 22:17:24 10° NNW 22:22:52 51° WSW 22:28:16 10° S
Cosmos 2278 Rocket 4.1 22:23:34 10° ESE 22:24:42 11° E 22:26:03 10° E
Cosmos 1400 Rocket 3.6 22:21:27 10° SSW 22:25:25 54° WNW 22:29:21 10° N
Cosmos 1825 Rocket 3.5 22:21:05 10° S 22:25:33 78° E 22:30:01 10° N
Aureole 1 Rocket 2.3 22:23:40 10° SSW 22:26:44 88° ESE 22:30:23 10° NNE
Cosmos 1269 Rocket 4.2 22:23:22 10° S 22:28:30 53° ESE 22:33:39 10° NNE
ERS-2 3.6 22:26:40 10° SSW 22:30:02 34° W 22:33:25 10° NNW
Cosmos 2285 Rocket 4.0 22:23:51 10° S 22:30:05 63° ESE 22:36:18 10° NNE
Terra 3.8 22:31:36 10° E 22:34:22 16° ENE 22:37:12 10° NNE
Cosmos 921 Rocket 4.2 22:30:29 10° N 22:34:27 30° ENE 22:37:08 17° ESE
Cosmos 1726 3.9 22:32:46 10° NNE 22:35:27 18° ENE 22:36:55 15° ESE
Cosmos 1346 Rocket 3.3 22:33:26 10° N 22:37:15 43° ENE 22:39:41 20° SE
ATLAS 3B R/B 3.9 22:31:46 10° NNW 22:37:31 30° NE 22:43:02 10° ESE
ARGOS 3.2 22:32:46 11° SSE 22:38:00 90° ENE 22:43:28 10° NNW
Cosmos 1844 4.0 22:39:57 10° S 22:45:18 44° ESE 22:50:44 10° NE
Cosmos 1844 Rocket 2.7 22:43:05 10° S 22:48:40 63° ESE 22:54:16 10° NNE
Meteor 1-24 Rocket 3.9 22:44:03 10° S 22:50:05 84° E 22:56:08 10° N
MetOp-A 4.3 22:45:48 12° S 22:50:42 73° WSW 22:56:05 10° NNW
Nadezhda 2 Rocket 4.5 22:49:51 10° N 22:56:10 89° W 23:01:19 15° S
ATLAS 2AS CENTAUR R/B 3.0 22:52:52 10° SSW 23:00:37 82° ESE 23:08:47 10° NE
Cosmos 2251 Rocket 4.4 22:59:38 24° SE 23:01:30 29° E 23:06:04 10° NE
SPOT 5 3.2 22:59:19 24° SE 23:02:15 58° ENE 23:07:23 10° N
Iridium 18 4.2 23:07:53 35° S 23:09:07 89° E 23:12:44 10° N
ERS-1 Rocket 3.1 23:06:47 21° S 23:10:11 76° WSW 23:15:15 10° NNW
Cosmos 1238 Rocket 3.7 23:08:12 11° SW 23:10:44 33° W 23:13:28 10° NNW
Lacrosse 5 2.6 23:05:55 10° WSW 23:10:52 56° NW 23:15:52 10° NE
ATLAS 5 CENTAUR R/B 3.9 23:13:17 10° E 23:13:17 10° E 23:13:23 10° E
Cosmos 2082 Rocket 4.4 23:09:10 10° NNE 23:11:55 13° NE 23:14:38 10° ENE
IGS 5A 4.1 23:12:05 30° ESE 23:13:28 39° ENE 23:17:21 10° N
Cosmos 1553 Rocket 3.9 23:09:11 19° S 23:13:41 72° E 23:19:44 10° NNE
Cosmos 1908 3.1 23:09:49 10° N 23:13:42 83° E 23:15:12 36° SSE
Cosmos-2242 3.4 23:11:57 10° NNW 23:16:17 61° W 23:18:55 23° SSW
OE (NEXTSAT) 4.3 23:13:39 10° WNW 23:17:12 85° NNE 23:18:12 45° ESE
Meteor 2-1 Rocket 4.3 23:13:22 10° N 23:19:19 84° E 23:22:44 27° SSE
Cosmos 1842 Rocket 3.8 23:17:43 10° N 23:21:58 51° E 23:23:16 38° SE
Meteor 1-29 3.4 23:21:07 10° NNE 23:24:13 40° E 23:24:13 40° E
Cosmos 2084 3.2 23:22:33 10° NW 23:26:22 68° WSW 23:27:20 46° S
SL-8 R/B 3.8 23:25:38 10° WSW 23:30:28 79° NNW 23:35:20 10° ENE
OAO 3 Rocket 3.4 23:26:46 10° WSW 23:31:31 48° S 23:32:33 41° SE
Cosmos 1626 3.7 23:35:20 23° ENE 23:35:20 23° ENE 23:37:49 10° NE
CZ-2C R/B 3.3 23:29:49 10° NNE 23:34:47 36° E 23:35:50 33° ESE
Cosmos 1340 2.5 23:31:23 10° N 23:35:10 84° ENE 23:35:53 58° SSE
Helios 1A 3.3 23:36:24 36° SSW 23:37:55 60° W 23:42:05 10° NNW
NOSS 3-4 (A) 3.7 23:35:39 32° SSE 23:37:59 46° ESE 23:43:59 10° NE
NOSS 3-4 (C) 3.7 23:35:49 32° SSE 23:38:04 45° ESE 23:44:04 10° NE
Cosmos 1386 Rocket 4.4 23:33:50 10° N 23:39:56 69° E 23:42:28 36° SSE
Cosmos 807 4.3 23:45:00 66° N 23:45:00 66° N 23:47:42 10° N
Cosmos 1674 4.3 23:43:16 16° SW 23:45:46 31° WNW 23:49:12 10° NNW
Cosmos 1300 2.7 23:42:58 10° N 23:46:46 61° E 23:46:59 59° E
CENTAUR R/B 4.3 23:40:35 10° NNW 23:47:32 33° NE 23:54:14 12° E
Landsat 7 4.2 23:50:31 35° SSW 23:52:15 57° W 23:56:56 10° NNW
Helios 1B rocket 2.9 23:48:44 10° N 23:52:47 59° WNW 23:54:22 34° SW
Meteor 1-21 Rocket 4.3 23:49:44 29° SSW 23:52:53 84° W 23:58:44 10° N
